Погода Кировский

Погода Кировский : погода сейчас, прогноз погоды и архив. Всё, что Вы хотите узнать о погоде Кировский!

Хотите узнать прогноз погоды Кировский? Тогда Вам сюда: Погода Кировский

Поиск расширенной информации на нашем сайте:

Другие новости

Новости СМИ2

Главная страница сайта

Новости сайта

03.07.2017

Напоминаем, что на нашем специализированном сайте Метеоцентр.Азия вы можете получить высокодетализированные автоматические прогнозы погоды по пунктам России, СНГ и мира в авиационном формате (включающие направление и скорость ветра, видимость, явления погоды, количество и форму облачности, нижнюю и верхнюю границу облачности).


Погода Кировский - сегодня

Время (UTC), дата Ветер
(°,м/с) 
Видим.   Явления Облачность Т
(°С)
Тd
(°С)
f(%) Тe
(°С)
Pmin
(гПа)
dP
(гПа)
Po
(мм)
O2
(г/м3)
Тmin Tmax R s Состояние
почвы
03 20.08.17 240 (ЮЗ) 20000 м    ясно 
+28.1 +17.5 53 +41  1012.5  -1.2  751  271           
06 20.08.17 360 (С) 20000 м    1/1 1000 м 
[Cu hum]
+29.9 +15.9 43 +40  1011  -1.5  750  269           
09 20.08.17 320 (СЗ) 20000 м    ясно 
+28.8 +15.9 46 +39  1010.4  -0.6  749  270    +30.5       
12 20.08.17 240 (ЮЗ) 20000 м    ясно 
+20.3 +19 92 +37  1011.2  0.6  750  277           
15 20.08.17 080 (В) 20000 м    3/0 верхняя 
[Ci sp]
+18.9 +18.4 97 +35  1011.4  0.1  750  278           
18 20.08.17 тихо ()   20000 м    ясно 
+16.9 +16.6 98 +28  1011.1  -0.4  750  281           
21 20.08.17 тихо ()   20000 м    3/0 средняя, верхняя 
[Ac cast|Ci sp]
+15.9 +15.6 98 +26  1011.4  0.2  750  282  +15.3        сухая 
00 21.08.17 120 (ЮВ) 20000 м    6/0 средняя, верхняя 
[Ac cast|Ci sp]
+23.6 +16.8 66 +36  1010.8  -0.2  750  274           
03 21.08.17 260 (З) 20000 м    9/0 средняя, верхняя 
[Ac cast|Ci sp]
+24.8 +18 66 +39  1009.3  -1.5  749  272           
06 21.08.17 290 (З) 20000 м    8/0 средняя, верхняя 
[Ac cast|Ci sp]
+25.4 +17 60 +38  1008.1  -1.2  748  272           
09 21.08.17 270 (З) 20000 м    4/3 1000 м средняя, верхняя 
[Cu med, cong|Ac trans|Ci]
+25.1 +18.3 66 +40  1007.2  -0.9  747  271    +27.1       
12 21.08.17 тихо ()   20000 м    3/0 средняя 
[Ac trans]
+18.8 +17.9 95 +33  1007.8  0.4  747  278           
15 21.08.17 тихо ()   20000 м    ясно 
+17 +16.2 95 +28  1007.6  -0.3  747  280           
18 21.08.17 тихо ()   20000 м    ясно 
+15.8 +15.4 97 +25  1006.6  -1  746  281           
21 21.08.17 190 (Ю) 20000 м    9/8 1000 м средняя, верхняя 
[Sc|Ac trans|Ci sp]
+16.5 +16.2 98 +29  1007.4  0.9  747  280  +14.8        сухая 
00 22.08.17 170 (Ю) 20000 м    10/0 средняя, верхняя 
[Ac trans|Cs]
+21.9 +17.7 77 +36  1006.9  -0.3  747  275           
03 22.08.17 260 (З) 20000 м    8/8 1000 м 
[Cu hum]
+25.6 +19.2 68 +43  1006.7  747  271           
06 22.08.17 260 (З) 20000 м    3/3 1000 м кучево-дожд. 
[Cb calv]
+28.7 +19.8 59 +47  1005.3  -1.3  746  267           
09 22.08.17 230 (ЮЗ) 20000 м    3/1 1000 м кучево-дожд., средняя, верхняя 
[Cb calv|Ac trans|Ci fib]
+28.4 +20.2 61 +48  1005.5  0.3  746  267    +29.1       
12 22.08.17 тихо ()   20000 м    6/0 средняя, верхняя 
[Ac trans|Ci fib]
+22.6 +20.9 90 +44  1006.9  1.1  747  273           
15 22.08.17 тихо ()   20000 м  {ливн. осадки}  10/10 1000 м 
[Sc]
+21.1 +20.7 98 +42  1007.5  0.6  747  274           
18 22.08.17 тихо ()   20000 м  {ливн. осадки}  10/10 1000 м 
[Sc]
+20.5 +20.2 98 +40  1007.2  -0.3  747  275           
21 22.08.17 250 (З) 20000 м    8/0 средняя, верхняя 
[Ac cast|Ci sp]
+19.7 +19.4 98 +38  1008.5  1.3  748  276  +19.7      влажная 
00 23.08.17 250 (З) 20000 м    10/3 1000 м средняя 
[Sc|Ac As]
+23.5 +21.5 89 +46  1008.3  748  272  +19.6         
03 23.08.17 280 (З) 20000 м    10/3 1000 м средняя 
[Cu Sc|Ac As]
+25.1 +15.2 54 +34  1007.8  -0.5  747  273           
Время (UTC), дата Ветер
(°,м/с) 
Видим.   Явления Облачность Т
(°С)
Тd
(°С)
f(%) Тe
(°С)
Pmin
(гПа)
dP
(гПа)
Po
(мм)
O2
(г/м3)
Тmin Tmax R s Состояние
почвы

Для получения пояснительной информации подведите курсор к названию столбца.

ПОГОДА Кировский - архив

Всё, что Вы хотите узнать о погоде Кировский - удобно и подробно!

Выберите нужную дату (начиная с 1 января 2015* года) и нажмите кнопку "Найти".
Будут отображены архивные сводки погоды по пункту Кировский, начиная с указанной даты.


Отображать данные в формате CSV (для использования в таблицах Excel)


Внимание! Наш архив погоды предназначен исключительно для личного некоммерческого использования в познавательных целях. Если Вам необходимы официальные справки о состоянии погоды (для производственных, юридических, коммерческих и т.п. целей), обращайтесь в органы Росгидромета.

*Примечание: данная дата относится к архиву по метеостанциям СССР (Россия, СНГ, Балтия).
Архив по метеостанциям Зарубежной Европы и Азии (кроме Китая) хранится 10 дней, по другим регионам земного шара (Китай, Африка, Америка, Австралия, Океания) - 1 день.

Кировский - район местоположения метеостанции


Название, широта, долгота, высота метеостанции:
Кировский 45.1°ш. 133.5°д. 98 м над ур. моря [Российская Федерация]

Дополнительная информация

В oтличие oт бoльшинства пoгoдных сайтoв мы публикуем пoдрoбную метеoинфoрмацию в детальнoм прoфессиoнальнoм фoрмате.

Характеристики температуры и влажнoсти вoздуха измеряются на высoте 2 м в тени вдали oт зданий и деревьев.
Скoрoсть ветра измеряется на высoте 10 м (на урoвне рoста челoвека скoрoсть ветра ниже в 1.5-2 раза). Если метеoстанция нахoдится в гoрoде или в лесу, тo скoрoсть ветра занижена на 2-4 м/с пo сравнению с oткрытым местoм. Скoрoсть ветра над акватoриями крупных рек и oзёр, а также на вершинах хoлмoв на 2-5 м/с выше, чем в oбычных услoвиях.
Атмoсфернoе давление в разных тoчках местнoсти мoжет значительнo oтличаться oт давления на метеoстанции, в зависимoсти oт услoвий рельефа (при пoдъёме на 10 м давление пoнижается примернo на 1 мм рт.ст.).